TimeEST,TemperatureF,Dew PointF,Humidity,Sea Level PressureIn,VisibilityMPH,Wind Direction,Wind SpeedMPH,Gust SpeedMPH,PrecipitationIn,Events,Conditions,WindDirDegrees,DateUTC
12:30 AM,73.4,69.8,88,30.03,10.0,SE,5.8,-,N/A,,Mostly Cloudy,130,2012-12-12 05:30:00
12:53 AM,73.0,70.0,90,30.03,10.0,SE,3.5,-,N/A,,Mostly Cloudy,130,2012-12-12 05:53:00
1:53 AM,73.0,70.0,90,30.04,10.0,Calm,Calm,-,N/A,,Scattered Clouds,0,2012-12-12 06:53:00
2:53 AM,73.0,70.0,90,30.03,10.0,Calm,Calm,-,N/A,,Scattered Clouds,0,2012-12-12 07:53:00
3:53 AM,72.0,70.0,93,30.04,10.0,Calm,Calm,-,N/A,,Mostly Cloudy,0,2012-12-12 08:53:00
4:53 AM,73.9,72.0,93,30.04,10.0,Calm,Calm,-,N/A,,Mostly Cloudy,0,2012-12-12 09:53:00
5:53 AM,75.0,72.0,90,30.03,10.0,SSE,9.2,-,N/A,,Mostly Cloudy,160,2012-12-12 10:53:00
6:53 AM,77.0,71.1,82,30.04,10.0,SSE,10.4,-,N/A,,Mostly Cloudy,160,2012-12-12 11:53:00
7:53 AM,77.0,71.1,82,30.06,10.0,South,11.5,-,N/A,,Mostly Cloudy,170,2012-12-12 12:53:00
8:53 AM,78.1,72.0,81,30.06,10.0,SSE,11.5,-,N/A,,Mostly Cloudy,160,2012-12-12 13:53:00
9:37 AM,78.8,71.6,78,30.08,10.0,SSE,15.0,-,N/A,,Mostly Cloudy,160,2012-12-12 14:37:00
9:53 AM,80.1,72.0,76,30.08,10.0,South,9.2,18.4,N/A,,Mostly Cloudy,170,2012-12-12 14:53:00
10:53 AM,80.1,71.1,74,30.09,10.0,South,12.7,-,N/A,,Mostly Cloudy,170,2012-12-12 15:53:00
11:16 AM,80.6,71.6,74,30.08,10.0,South,13.8,-,N/A,,Overcast,170,2012-12-12 16:16:00
11:53 AM,81.0,71.1,72,30.06,10.0,South,13.8,20.7,N/A,,Mostly Cloudy,180,2012-12-12 16:53:00
12:12 PM,80.6,71.6,74,30.06,10.0,SSE,15.0,-,N/A,,Overcast,160,2012-12-12 17:12:00
12:44 PM,82.4,69.8,66,30.04,10.0,South,12.7,19.6,N/A,,Mostly Cloudy,190,2012-12-12 17:44:00
12:53 PM,82.0,70.0,67,30.04,10.0,South,12.7,19.6,N/A,,Mostly Cloudy,170,2012-12-12 17:53:00
1:53 PM,81.0,70.0,69,30.02,10.0,SSE,12.7,-,N/A,,Overcast,150,2012-12-12 18:53:00
2:53 PM,80.1,70.0,71,30.02,10.0,SSE,9.2,-,N/A,,Overcast,160,2012-12-12 19:53:00
3:53 PM,79.0,70.0,74,30.02,10.0,South,9.2,-,N/A,,Overcast,170,2012-12-12 20:53:00
4:53 PM,79.0,70.0,74,30.03,10.0,South,6.9,-,N/A,,Overcast,190,2012-12-12 21:53:00
5:53 PM,78.1,70.0,76,30.05,10.0,South,4.6,-,N/A,,Overcast,190,2012-12-12 22:53:00
6:53 PM,77.0,70.0,79,30.05,10.0,South,4.6,-,N/A,,Mostly Cloudy,170,2012-12-12 23:53:00
7:53 PM,77.0,70.0,79,30.06,10.0,SE,6.9,-,N/A,,Mostly Cloudy,140,2012-12-13 00:53:00
8:53 PM,77.0,71.1,82,30.06,10.0,South,4.6,-,N/A,,Scattered Clouds,170,2012-12-13 01:53:00
9:53 PM,75.9,71.1,85,30.07,10.0,South,5.8,-,N/A,,Scattered Clouds,180,2012-12-13 02:53:00
10:53 PM,75.0,71.1,87,30.06,10.0,SSW,4.6,-,N/A,,Scattered Clouds,200,2012-12-13 03:53:00
11:53 PM,75.0,70.0,84,30.05,10.0,SSW,4.6,-,N/A,,Mostly Cloudy,200,2012-12-13 04:53:00